Theta_e
312 313 313 312 311 311 311 310 309 309 311 311 311 311 311 312 313 313 313 313 313 313 313 313 313 313 313 313 313 312 311 310 309 309 309 312 314 314 315 316 316 316 316 316 315 315 315 315 315 315 316 316 315 316 315 315 315 315 318 320 320 320 318 319 323 320 317 319 317 313 312 314 314 314 313 313 313 312 312 313 313 313 313 313 313 313 313 313
311 312 312 312 312 312 311 311 310 309 309 310 311 312 311 311 312 312 313 313 313 314 314 314 314 314 314 313 313 313 313 313 312 311 311 312 312 313 314 315 315 316 316 316 315 315 315 314 315 315 316 315 314 315 315 314 314 316 319 319 319 320 317 314 317 316 313 315 314 312 313 313 313 313 312 313 312 312 312 312 312 312 312 313 313 313 313 313
310 311 311 311 311 311 311 310 309 309 309 310 310 311 311 311 311 312 312 312 313 313 313 314 314 314 313 312 312 313 313 313 313 314 314 313 313 312 313 314 315 316 316 315 315 315 315 314 315 316 315 314 314 314 314 314 315 315 317 319 319 318 316 312 312 313 313 314 312 312 313 312 313 312 312 312 312 311 311 312 312 312 312 313 313 313 313 312
309 310 310 310 311 311 311 310 309 309 308 309 309 310 311 311 311 311 311 311 311 311 312 312 312 311 310 311 312 312 312 313 313 314 316 315 315 314 313 313 314 315 315 314 314 315 314 314 316 316 314 314 313 312 313 314 315 314 315 320 319 315 314 313 312 313 313 313 312 311 312 312 311 311 311 311 312 312 311 312 312 312 313 313 314 314 313 312
309 309 309 309 310 311 311 310 310 309 308 308 309 310 310 310 310 310 310 310 310 309 310 310 309 309 309 311 312 312 312 314 316 315 316 316 316 315 315 314 315 315 314 314 315 315 315 315 316 315 314 313 313 313 313 312 314 314 314 315 315 312 314 314 313 313 313 313 311 310 311 311 310 310 310 310 311 312 312 313 313 312 312 312 313 314 313 313
310 309 308 309 310 311 311 311 309 308 308 308 310 310 309 310 310 309 309 309 308 308 308 309 309 309 310 312 313 312 312 315 317 316 316 316 316 316 316 315 315 315 315 314 315 315 315 315 316 314 312 313 313 314 314 312 312 314 314 311 312 312 313 313 312 312 311 310 309 309 310 310 310 310 311 310 311 312 313 314 313 312 313 313 313 313 314 314
310 309 308 308 310 311 310 309 308 308 308 308 309 309 309 310 310 309 309 308 308 308 308 308 308 309 310 311 312 312 311 313 314 315 316 315 316 316 315 315 314 315 315 314 315 315 315 315 315 313 312 314 313 313 313 311 310 312 313 310 310 311 310 311 311 311 311 310 309 310 310 310 310 312 311 311 312 312 313 313 313 313 314 313 313 313 314 314
310 310 309 308 309 310 309 308 308 308 308 308 308 308 309 310 309 309 308 308 308 308 308 308 308 308 309 310 311 311 311 313 313 312 313 313 313 313 314 313 313 315 314 314 314 315 315 314 315 313 314 315 313 312 312 311 311 312 313 309 309 311 311 312 312 312 312 311 312 312 311 311 311 312 311 311 313 314 314 313 314 314 314 313 313 314 313 313
310 310 309 308 309 309 308 309 308 308 308 308 309 308 308 309 308 308 308 308 308 308 308 308 308 308 308 308 309 311 312 313 313 312 312 311 311 312 312 312 313 314 314 315 314 314 315 314 314 314 314 314 312 312 311 313 315 312 311 310 309 311 312 313 313 312 312 312 312 312 311 312 311 312 312 312 314 315 315 314 314 313 313 313 313 313 313 313
309 309 310 309 309 308 308 309 308 308 308 309 309 309 309 309 309 309 308 308 309 309 308 307 308 308 307 307 307 311 313 312 313 313 313 312 312 312 311 312 313 314 314 314 314 314 314 315 315 314 314 313 312 313 311 313 315 311 311 311 311 312 312 312 312 312 312 312 311 311 312 311 311 312 313 314 314 315 313 314 313 313 313 313 313 312 312 312
309 309 309 309 309 308 308 309 309 308 309 309 309 309 309 309 309 310 309 310 310 309 308 307 307 307 306 306 306 310 311 311 313 313 313 313 313 313 313 313 313 314 314 314 314 314 314 315 314 314 314 313 313 313 312 312 313 312 312 312 312 312 312 312 311 311 311 312 311 311 312 311 310 312 313 314 314 313 313 314 313 312 312 312 312 312 312 312
311 311 310 309 308 308 309 309 309 310 310 310 310 310 310 310 311 310 310 311 310 308 307 307 307 306 305 305 307 311 310 310 311 312 313 312 312 314 314 314 313 313 314 314 314 314 314 315 314 314 315 314 314 313 313 313 312 312 313 314 314 313 313 312 310 311 311 313 312 311 313 313 314 314 313 314 314 313 313 313 312 312 312 312 312 312 312 311
314 313 312 310 309 309 309 309 310 311 311 311 310 310 310 311 312 311 311 310 309 308 307 307 306 305 304 305 310 311 310 309 310 311 312 313 313 313 314 314 314 313 313 314 314 314 315 315 314 314 314 314 314 313 314 312 312 313 313 314 314 312 315 313 309 309 310 312 311 311 313 315 319 316 313 313 313 312 312 311 311 312 312 312 312 311 312 312
315 315 314 313 311 310 309 309 309 310 311 310 310 310 310 311 311 311 311 310 309 307 307 307 306 304 303 306 307 307 308 308 310 310 311 312 313 313 313 314 314 313 313 313 314 315 315 315 314 314 314 314 314 314 314 313 314 315 313 314 313 314 320 318 310 309 313 313 310 311 314 313 316 316 312 312 312 311 310 310 311 311 312 311 311 311 311 313
315 315 315 315 313 312 311 310 309 309 310 310 310 310 310 310 310 310 309 309 308 307 307 306 305 304 303 305 304 306 306 306 308 309 310 311 312 314 314 314 314 314 314 315 315 315 315 314 314 314 314 314 314 315 316 316 317 315 314 316 316 315 320 317 310 311 314 313 309 311 316 313 312 313 311 311 311 311 310 310 311 311 311 311 311 311 312 314
315 315 316 315 315 314 313 312 312 311 310 309 309 310 310 310 310 309 309 308 307 307 306 306 305 305 305 307 306 307 308 308 309 310 310 310 311 312 313 314 315 315 315 315 315 315 315 314 314 313 313 313 315 317 316 317 318 314 313 318 319 317 317 314 310 309 309 312 312 312 314 313 311 311 311 311 311 311 310 310 311 310 310 311 311 311 312 314
315 315 315 315 316 315 314 314 313 313 311 310 310 310 310 309 309 309 309 308 307 307 307 307 305 304 306 308 307 307 308 308 310 311 312 310 310 310 312 314 315 316 316 315 315 314 315 314 313 313 313 313 315 317 316 317 320 318 314 316 317 316 315 315 312 309 308 311 314 312 311 311 311 311 310 310 311 310 310 309 310 310 311 311 311 312 313 314
316 315 315 315 315 315 315 315 314 314 313 311 310 310 310 310 310 309 309 308 308 307 307 307 305 305 308 307 306 307 308 309 310 310 311 311 310 310 312 314 315 315 315 314 314 314 314 312 312 315 315 313 314 315 315 317 319 320 319 317 315 314 314 314 312 310 310 311 312 312 311 311 311 310 310 310 311 310 309 310 310 310 311 311 311 312 313 314
317 317 316 315 315 315 315 315 315 314 313 312 311 311 311 311 310 310 310 309 308 309 311 310 307 308 309 307 305 307 309 310 310 311 311 311 311 312 313 315 315 315 314 314 314 313 313 311 312 316 316 313 313 314 314 315 313 314 315 315 314 313 313 312 311 312 312 311 312 312 311 311 311 311 311 310 311 310 310 310 310 311 311 311 311 313 314 314
317 317 317 317 316 315 315 315 316 315 313 312 312 311 311 311 311 310 309 308 309 311 312 311 309 309 310 309 308 309 308 308 309 310 312 311 311 312 315 315 314 314 313 315 315 311 311 313 314 315 314 313 313 313 313 313 313 312 313 313 313 312 312 311 310 312 312 312 313 313 312 311 311 311 311 310 311 311 311 310 310 310 311 310 311 313 313 314
316 316 317 317 317 316 316 316 316 316 314 312 311 311 311 311 312 311 309 309 311 311 311 311 311 310 311 311 310 309 309 310 310 310 312 311 311 313 315 314 314 315 312 310 312 310 310 314 314 313 313 315 315 313 312 313 313 313 313 313 312 311 312 311 311 312 311 312 314 313 312 311 310 311 311 311 311 311 311 311 310 310 310 310 311 313 314 313
315 316 316 316 317 317 316 316 316 316 314 312 311 311 312 312 312 311 309 308 310 311 310 311 310 309 312 312 309 308 308 310 311 311 311 311 311 313 313 313 314 314 310 309 312 312 311 312 312 311 312 314 315 313 312 312 312 313 312 312 312 312 312 311 312 313 311 311 313 312 312 311 311 311 311 311 311 311 310 310 310 310 310 311 311 312 312 312
313 314 315 315 316 316 316 316 316 316 314 313 312 312 312 312 311 310 308 306 308 310 310 311 310 309 313 313 309 308 306 307 309 310 311 311 311 312 312 312 313 313 311 312 314 313 313 313 311 310 310 311 313 313 312 312 311 312 312 312 312 312 312 311 313 314 312 311 313 312 311 311 311 311 313 312 308 309 310 309 311 311 310 311 312 312 310 310
312 313 313 314 315 315 316 316 316 315 314 313 313 313 312 312 311 310 308 306 308 309 310 311 310 309 311 311 309 308 306 307 308 309 311 311 311 311 311 311 312 312 311 311 312 313 313 312 309 310 311 310 312 312 312 313 312 311 310 312 312 312 312 311 312 312 312 312 312 312 313 316 317 317 322 318 309 309 311 310 311 310 311 311 310 311 309 309
311 312 312 312 313 314 315 315 315 315 315 314 313 313 313 312 311 309 307 307 309 309 309 309 308 308 309 309 308 308 306 306 308 309 310 311 311 311 311 311 311 312 311 310 311 311 311 309 308 312 312 310 311 311 311 312 312 311 311 311 311 312 312 312 312 311 313 317 313 311 316 321 323 323 322 318 312 313 312 311 311 308 309 311 309 309 309 308
310 311 311 311 312 313 313 314 314 314 314 314 314 314 313 311 311 309 307 309 311 310 309 309 309 309 308 308 307 307 308 308 307 308 309 310 311 310 312 311 310 312 310 310 310 310 311 310 309 313 312 310 311 310 310 311 311 312 313 313 312 311 311 311 311 311 316 319 312 311 317 319 318 317 315 314 313 314 312 314 313 307 308 310 309 309 309 308
307 309 310 311 311 312 313 313 313 313 314 314 314 314 312 311 310 309 309 312 314 311 310 309 308 309 307 307 307 308 312 311 307 308 308 310 311 310 312 312 310 310 308 309 311 311 312 312 310 311 311 311 311 311 310 309 312 314 313 314 314 311 311 311 311 312 314 314 311 313 316 315 316 315 316 316 315 314 313 315 314 309 308 310 309 308 308 308
302 304 307 308 310 311 311 312 312 312 313 313 313 312 312 311 309 309 313 315 313 312 311 308 306 307 306 307 307 307 310 310 309 309 308 310 311 309 312 311 311 312 310 310 312 310 311 315 313 310 311 311 310 312 312 309 312 314 311 311 313 312 312 312 312 312 312 311 313 315 313 314 317 317 319 319 315 316 316 315 315 312 307 307 308 308 308 308
296 298 301 304 308 309 310 311 310 311 312 313 312 311 311 310 308 310 313 313 313 313 311 309 308 307 306 305 305 305 306 309 311 309 308 310 311 310 311 310 309 312 309 309 311 309 308 312 311 310 311 311 311 313 314 311 312 312 309 309 311 312 311 311 312 313 313 313 315 316 313 315 317 317 321 321 317 320 320 317 317 312 305 306 308 307 308 308
293 293 296 299 303 307 308 309 309 310 311 312 312 311 310 309 309 313 314 313 313 312 309 309 309 307 305 305 306 305 306 309 310 309 309 311 311 310 310 308 308 311 310 309 311 309 307 308 308 310 311 310 311 311 309 311 311 308 310 312 314 314 312 312 312 312 314 315 315 315 315 315 316 319 324 323 319 319 319 320 320 314 306 306 308 308 307 308
291 292 293 295 299 303 306 308 308 309 310 311 311 310 309 308 310 315 315 311 309 310 309 310 308 306 305 307 309 306 306 308 309 310 311 310 311 311 310 309 309 310 311 311 311 310 309 309 309 310 309 308 312 310 306 308 308 309 314 316 316 314 313 314 313 313 316 317 314 313 313 312 315 320 323 320 315 313 315 317 319 317 310 306 307 308 308 308
291 292 292 292 295 300 304 306 307 309 309 309 310 309 308 309 311 315 315 311 309 312 312 312 308 306 306 308 310 306 306 310 309 310 311 310 311 311 310 311 310 312 314 311 310 312 311 310 310 310 309 308 312 313 309 308 307 310 314 315 316 315 315 317 315 312 314 315 313 312 312 312 313 315 315 314 312 312 313 311 312 312 310 307 308 308 308 308
292 291 291 292 293 297 302 305 306 308 308 308 309 308 308 312 314 313 314 313 311 310 310 311 309 307 307 309 310 306 307 310 309 309 311 310 311 310 310 311 309 312 315 311 310 313 314 311 309 310 310 309 311 312 313 312 310 310 312 313 315 314 315 319 315 312 313 314 311 309 312 313 314 315 313 313 312 311 310 309 308 308 308 309 309 308 308 309
293 292 291 291 292 294 299 303 306 307 307 307 307 308 309 312 313 312 313 313 312 312 310 310 309 308 309 311 311 308 308 310 309 310 310 310 311 310 310 311 309 310 313 311 311 313 317 317 313 312 313 311 310 310 314 315 310 309 311 314 315 313 315 320 320 317 318 317 311 308 312 317 320 319 315 313 313 309 307 307 307 307 308 310 310 309 308 309
293 292 291 291 291 291 295 301 305 305 305 306 306 308 310 312 312 311 312 311 313 316 313 310 310 312 312 311 310 308 309 310 309 310 310 310 311 310 310 310 309 310 312 313 313 311 313 317 314 310 310 309 310 310 312 313 311 310 312 314 315 314 313 316 317 314 313 314 313 311 314 317 318 316 312 311 312 309 307 307 306 307 308 309 309 309 309 309
293 292 292 292 292 291 292 298 303 304 304 305 306 308 310 311 310 310 312 310 311 315 313 311 312 314 314 313 310 308 308 309 309 310 310 310 311 310 310 310 309 309 311 312 314 313 313 316 312 307 308 309 310 310 310 312 313 311 312 313 313 312 312 314 314 311 309 312 315 314 315 314 314 315 314 314 314 312 313 312 309 307 306 307 308 309 309 309
293 292 292 292 292 291 291 295 301 303 303 304 306 309 309 310 310 311 311 309 309 313 314 312 312 313 315 313 312 311 309 309 310 309 310 310 311 311 310 310 309 309 310 310 313 315 314 315 311 308 311 309 305 307 309 309 311 313 313 313 311 311 313 315 315 314 313 314 315 314 314 314 314 316 318 317 316 316 316 316 313 307 304 303 305 308 309 309
294 292 292 293 292 292 291 292 298 301 302 303 305 308 308 308 308 309 309 308 309 311 312 312 311 313 315 314 314 313 310 310 310 308 310 311 312 311 310 311 310 308 309 309 312 314 313 314 312 308 311 309 304 308 312 308 307 312 313 311 312 315 315 314 314 316 316 316 317 317 316 314 314 316 316 315 316 317 316 314 312 311 309 305 304 307 309 309
294 293 292 293 294 293 292 291 296 300 301 302 304 306 308 307 306 306 307 307 309 309 311 313 312 311 313 313 313 313 310 311 311 309 311 313 313 313 312 312 311 309 308 309 311 312 312 314 314 308 307 308 307 310 314 310 308 309 309 308 311 314 315 314 314 315 316 317 317 318 317 315 315 317 317 317 317 318 317 315 315 316 311 305 305 308 309 309
295 293 292 293 293 294 293 292 295 299 300 302 304 305 307 306 306 306 306 307 308 309 310 311 311 311 312 311 312 312 310 311 311 310 311 313 314 314 312 311 313 310 307 308 310 311 311 313 314 309 306 308 310 311 312 312 311 310 310 310 310 310 312 314 313 312 316 318 317 316 316 315 314 317 319 317 318 319 318 317 318 316 308 303 307 309 309 309
295 292 292 293 292 293 294 293 295 298 300 301 303 304 305 306 306 306 306 306 307 308 308 309 309 309 310 310 311 312 311 310 310 310 311 312 313 314 311 310 313 312 308 309 310 310 311 313 313 313 310 309 312 312 311 311 312 311 311 312 311 311 312 313 313 312 313 315 316 316 316 314 313 315 317 316 319 322 319 316 317 314 306 305 307 308 308 308
295 293 293 294 293 293 294 294 295 297 298 301 302 302 303 304 306 305 305 305 306 307 307 308 308 308 308 309 309 310 312 311 311 310 310 311 312 312 311 308 308 310 310 311 310 309 311 312 312 313 313 311 312 311 310 310 311 311 311 311 311 311 312 313 314 314 312 312 314 314 314 314 313 315 316 317 320 319 313 311 315 310 304 306 307 306 307 307
295 294 295 294 293 294 294 293 294 296 297 298 299 300 301 302 303 304 304 305 306 307 307 307 308 308 308 309 309 310 311 311 311 311 310 311 311 310 310 308 307 309 311 312 311 310 310 311 311 312 312 313 312 309 306 306 309 311 311 311 310 311 311 313 314 314 314 314 313 313 313 314 313 315 317 318 319 315 306 305 309 306 303 305 306 305 306 307
295 294 295 295 294 295 295 294 294 294 295 296 296 297 299 299 300 301 302 303 305 307 307 307 307 307 307 307 307 308 310 310 310 311 310 310 311 309 308 307 309 311 311 312 313 312 310 311 312 312 313 314 313 309 308 307 308 310 311 310 310 310 310 312 313 312 313 314 314 314 314 314 312 313 315 314 315 316 311 305 303 302 304 306 306 305 306 307
294 294 294 294 294 294 294 295 295 294 295 295 295 295 296 297 298 299 300 301 303 304 305 305 305 304 303 304 304 304 307 308 309 310 310 310 310 309 308 306 307 309 309 309 310 309 310 312 313 312 313 314 313 312 313 311 309 309 311 311 310 310 310 311 312 312 312 313 313 313 313 313 312 312 312 310 311 312 311 306 303 303 305 307 307 307 306 306
294 294 293 293 293 293 293 294 294 294 295 295 294 294 295 295 296 297 298 299 300 301 302 303 303 302 303 304 304 304 305 306 307 308 309 309 309 309 307 305 305 306 307 307 304 304 308 311 311 312 313 313 313 312 313 314 311 309 311 311 310 311 310 310 311 312 313 313 313 313 313 312 312 312 311 311 311 311 311 311 308 305 306 307 307 307 307 307
294 294 294 293 293 293 293 292 293 293 294 296 295 295 296 295 295 295 296 297 297 299 300 300 301 302 303 303 304 304 305 305 305 305 306 306 306 307 305 304 305 306 306 307 305 305 308 309 310 311 311 311 312 311 312 313 312 311 311 311 311 311 310 310 311 312 312 313 314 313 313 313 312 312 312 311 311 311 311 312 309 307 308 309 308 308 308 307
294 294 295 294 294 294 293 293 292 292 293 294 295 296 296 296 296 296 297 297 297 297 299 299 300 300 300 301 301 302 302 303 303 303 304 303 303 303 303 304 305 305 305 306 306 307 309 309 309 310 310 310 311 310 311 311 310 311 311 310 311 311 310 310 311 311 312 313 314 313 313 314 312 312 312 311 311 311 310 309 309 309 309 309 308 308 308 307
293 293 294 294 293 293 294 293 292 291 291 292 293 295 295 296 296 296 297 296 296 297 298 298 298 298 297 297 298 299 300 300 300 300 300 300 300 300 300 302 303 303 303 303 304 306 307 308 309 309 309 309 309 309 310 310 310 310 310 310 310 310 310 310 310 311 311 312 312 313 313 313 312 312 312 311 311 310 309 308 308 308 308 308 308 308 308 308
293 293 293 293 291 291 292 293 292 291 291 291 292 293 294 295 295 295 296 296 295 296 297 297 297 296 294 294 295 295 296 296 296 297 297 298 298 299 299 301 302 301 300 301 303 304 305 306 307 308 308 307 308 309 309 310 310 310 310 310 310 309 309 309 310 310 311 311 311 312 312 312 311 311 311 311 310 309 309 309 307 306 308 307 306 307 307 308
294 293 293 293 292 291 292 292 292 292 291 291 291 292 292 293 294 294 295 295 295 295 296 296 295 294 294 294 293 293 295 295 295 296 296 296 296 297 298 299 299 299 298 299 301 302 303 304 304 305 304 305 306 306 306 307 308 308 309 309 310 310 310 309 309 310 310 311 311 311 311 311 311 311 311 310 310 310 310 310 307 305 307 308 306 307 308 308
293 293 292 291 291 292 292 291 293 293 292 292 292 292 292 293 293 294 294 295 295 294 295 295 294 293 293 293 293 293 294 295 295 295 295 295 295 296 296 296 297 297 297 298 299 300 300 301 301 302 302 302 303 303 303 305 305 306 308 309 309 309 310 309 310 310 310 310 310 311 311 310 310 310 310 310 310 310 310 310 307 306 307 308 307 308 309 309
Wind_Speed
15 14 13 13 13 13 13 12 10 9 9 8 9 10 11 11 11 11 11 12 12 12 13 14 14 14 14 14 15 14 14 14 13 15 17 9 6 9 9 10 11 12 12 11 10 8 8 7 7 7 6 6 6 5 4 5 6 5 2 2 4 3 4 5 7 6 2 5 5 5 8 5 13 21 22 21 19 23 26 30 33 32 34 37 37 36 33 31
16 16 15 13 13 12 13 13 13 10 10 9 8 9 11 12 11 11 10 11 12 12 12 13 14 13 13 13 14 15 15 14 16 18 17 12 12 14 12 13 14 15 14 14 10 7 8 7 7 7 6 5 5 4 4 4 7 6 2 2 5 5 5 6 7 6 4 8 9 11 16 11 15 20 19 16 17 22 21 28 32 28 32 34 32 29 27 26
16 17 17 15 14 13 13 14 14 12 10 11 10 9 10 11 12 11 10 12 12 12 13 13 13 13 12 12 13 14 14 16 17 15 12 12 14 16 16 17 17 16 16 14 10 7 8 7 7 7 5 5 4 4 3 3 6 7 4 2 7 6 6 9 11 13 14 16 13 15 19 16 20 21 17 12 14 19 16 23 25 25 32 31 30 29 28 27
13 14 16 16 15 13 14 14 14 14 12 11 11 10 10 10 12 12 10 12 13 13 13 13 13 12 11 12 13 13 13 15 11 3 2 2 4 8 12 14 16 16 16 15 11 9 8 7 8 7 5 4 4 3 4 6 6 5 6 5 6 3 6 12 15 18 20 19 16 16 16 18 22 17 15 11 10 13 18 27 24 24 34 34 34 34 32 32
10 11 12 13 14 13 13 13 14 15 13 11 11 12 11 11 14 14 12 14 15 14 13 13 13 13 10 11 12 12 10 8 2 4 4 5 5 3 3 4 8 11 13 13 12 11 8 8 8 6 4 3 2 1 4 9 8 3 7 11 10 6 7 14 15 15 18 17 17 16 12 20 22 13 16 13 8 15 28 38 33 29 35 37 39 37 36 36
11 10 9 9 11 12 13 13 14 14 12 11 11 12 11 12 15 16 15 15 15 13 13 12 13 13 10 10 11 11 6 2 1 3 4 6 6 4 4 2 3 6 11 14 13 12 9 8 8 5 3 2 3 4 5 8 8 4 7 10 14 14 12 18 20 18 19 16 16 15 14 24 24 18 22 20 22 34 43 46 42 40 39 40 41 39 38 36
12 10 9 9 10 11 13 13 13 13 13 12 11 12 11 11 14 15 16 15 13 12 12 13 14 14 12 10 11 10 10 12 8 5 5 5 5 6 4 3 1 6 11 15 15 13 9 8 8 6 3 1 3 6 7 6 6 6 6 6 13 17 17 24 26 24 24 20 25 25 20 21 21 20 19 24 40 46 45 44 41 41 38 36 37 35 35 34
11 11 10 10 11 12 13 12 12 14 13 11 11 11 10 11 13 16 16 13 12 12 13 14 15 16 14 11 9 10 15 18 13 12 15 13 12 13 11 7 4 8 11 14 14 12 9 8 10 8 4 3 5 5 5 6 5 7 7 6 9 14 20 29 31 30 28 26 30 26 18 21 27 24 17 33 51 44 38 38 33 30 29 27 28 29 30 32
10 11 10 9 11 12 13 12 12 12 9 8 9 9 9 11 13 14 14 12 12 13 15 16 17 18 17 12 7 8 15 15 10 10 15 16 16 15 13 8 7 10 12 13 13 11 9 7 9 9 7 5 5 5 2 1 4 5 6 9 9 14 22 29 32 34 30 27 26 18 16 24 30 22 18 40 47 32 28 26 21 20 22 24 25 29 31 33
8 9 9 9 10 11 12 11 10 8 6 7 8 8 8 10 11 12 12 13 13 15 17 18 19 19 17 13 4 2 12 10 5 6 8 11 13 13 12 9 10 11 13 14 14 13 11 8 8 8 9 6 3 5 3 3 5 6 11 15 15 20 25 24 28 35 29 26 25 16 16 23 24 9 10 36 34 18 20 19 19 20 23 26 27 31 34 35
5 7 8 9 10 10 9 9 9 7 7 8 7 7 8 9 10 11 12 12 14 17 19 19 19 17 17 13 5 7 14 12 8 9 7 9 10 10 11 11 12 13 13 15 15 14 12 10 9 6 5 3 2 4 5 6 8 10 14 17 18 17 22 22 23 28 19 14 17 12 15 17 11 6 17 38 33 18 20 22 23 23 25 28 31 36 37 37
6 6 7 8 9 9 8 8 8 7 8 8 8 8 8 9 10 11 12 13 17 19 20 19 17 18 18 14 15 13 15 15 12 12 12 12 11 10 12 13 13 14 14 15 15 15 13 12 10 9 6 2 0 2 4 6 9 11 9 12 17 10 12 18 13 12 5 5 11 8 13 10 9 13 29 35 29 23 23 24 23 25 29 33 35 38 38 37
7 6 7 7 7 8 8 8 8 7 9 9 9 9 9 9 9 11 13 15 19 19 19 18 19 20 17 16 18 13 14 17 17 17 16 15 14 14 15 15 15 16 17 17 17 16 14 12 10 12 10 5 2 3 6 9 9 10 4 3 12 8 7 9 2 1 1 5 10 5 8 9 8 18 26 19 17 18 17 20 25 31 36 36 37 38 38 37
9 8 8 7 7 7 8 8 8 8 9 10 10 10 10 10 11 13 15 17 19 18 19 19 19 18 13 19 18 13 17 18 18 20 19 19 17 18 18 17 17 18 18 18 17 15 13 10 8 10 9 7 6 6 7 8 5 6 3 2 4 5 6 7 1 0 3 4 4 4 4 14 9 12 17 14 11 12 15 23 31 36 38 37 38 38 37 35
11 10 10 9 7 6 6 6 7 8 10 11 11 11 12 12 13 14 17 20 20 20 21 19 17 16 15 24 20 13 17 17 15 15 17 22 21 20 20 18 18 17 18 16 14 12 10 7 7 6 4 5 4 4 4 5 3 2 3 3 2 2 5 8 6 2 2 3 3 3 3 13 18 9 9 10 10 13 21 29 33 35 37 37 38 37 36 32
14 13 12 11 10 8 7 6 6 7 8 10 11 12 12 13 14 16 19 21 20 19 18 16 15 13 11 15 12 8 10 11 10 9 13 20 23 22 19 17 16 15 15 13 10 10 9 7 5 4 2 2 1 3 3 4 4 2 1 4 4 3 5 7 5 0 2 2 3 1 2 9 18 13 9 12 17 24 26 28 32 33 35 36 37 36 34 30
16 15 14 13 13 12 10 9 8 8 8 9 10 12 13 14 16 17 17 17 17 17 17 16 13 10 11 12 10 10 10 10 9 6 8 13 19 21 18 15 14 13 11 10 9 9 9 7 3 2 2 0 3 4 3 3 5 3 0 3 4 4 5 6 6 2 3 3 3 6 6 12 21 24 28 27 22 22 22 25 30 32 34 35 36 36 32 27
19 18 17 16 15 14 13 12 11 10 9 9 9 11 11 13 15 15 16 16 17 15 16 16 8 5 9 9 7 8 8 8 9 8 7 8 13 18 17 15 13 12 11 9 9 10 8 4 2 0 1 1 3 5 3 6 5 3 2 3 5 4 5 8 8 3 3 4 6 10 12 16 23 25 29 32 23 20 24 27 29 31 33 34 35 34 29 25
22 21 20 19 17 16 15 15 14 13 12 10 9 9 10 12 14 15 17 17 15 9 8 9 8 4 7 8 7 6 6 5 6 8 9 9 13 17 15 13 14 15 11 6 6 9 7 3 4 1 4 5 7 8 11 9 2 2 4 3 5 6 6 12 12 3 3 7 8 12 15 15 21 22 22 29 28 24 29 29 26 28 30 31 32 31 27 24
22 22 22 22 21 19 17 16 16 16 14 12 10 9 9 10 9 9 13 18 20 16 15 16 17 18 20 20 15 9 10 11 9 9 8 10 16 18 15 13 13 12 7 5 4 5 6 4 3 7 9 7 9 12 13 7 3 2 4 5 6 6 9 14 12 4 1 5 8 11 15 14 19 24 21 26 28 24 24 20 20 25 27 27 28 29 27 24
19 20 21 22 23 23 21 19 19 19 16 14 12 10 9 7 4 5 9 15 23 23 24 26 25 26 28 26 21 13 10 11 12 11 8 11 19 17 14 14 9 5 5 5 4 2 4 6 8 14 10 4 8 11 10 7 6 6 6 7 7 5 11 14 11 7 0 2 5 7 14 16 19 24 21 21 21 20 19 14 16 22 23 25 26 27 27 22
18 19 20 21 22 22 23 21 21 21 17 15 14 14 15 12 9 11 12 12 23 27 26 27 27 32 33 32 32 25 13 8 12 14 12 16 22 16 12 13 7 4 5 5 3 1 3 7 12 14 6 4 4 6 7 8 8 8 6 5 6 5 8 11 7 4 2 1 5 7 14 17 19 25 22 18 14 16 21 17 18 21 20 23 25 26 26 21
19 19 19 19 20 20 21 21 20 21 20 18 18 18 17 15 12 15 13 9 18 25 25 28 30 34 35 33 33 29 20 14 14 17 18 21 23 19 14 11 6 4 6 7 7 5 4 7 12 12 5 4 3 3 6 6 6 7 5 3 7 5 4 6 4 3 3 4 7 10 14 13 15 18 16 12 9 11 17 17 18 21 21 25 25 23 22 18
20 20 19 18 18 18 18 18 17 21 23 20 19 19 16 14 13 15 14 8 10 16 22 27 26 29 32 28 24 24 25 21 16 15 22 26 23 16 12 8 6 5 6 11 12 10 7 4 5 7 7 7 6 4 6 5 5 6 6 6 9 8 7 8 5 7 8 5 4 8 11 9 8 9 8 6 5 9 13 13 16 19 21 23 22 18 16 14
21 21 20 18 18 16 15 14 14 20 23 21 20 20 15 12 11 12 11 6 6 8 14 16 16 19 22 18 14 17 19 19 20 17 21 30 26 13 6 8 7 5 8 9 8 10 9 4 2 5 5 7 7 6 7 8 5 3 6 12 14 11 9 10 7 7 6 4 3 7 7 7 3 4 9 6 7 13 13 12 13 17 18 16 16 14 11 9
23 22 20 20 20 17 14 12 11 16 22 24 23 19 13 10 9 9 6 4 5 4 3 5 6 6 8 10 12 12 7 8 16 20 20 26 28 15 5 6 4 3 6 6 3 5 5 6 6 6 5 6 7 8 8 9 4 4 5 12 14 12 9 9 7 3 1 4 3 4 2 8 4 4 12 10 9 14 13 11 12 14 15 12 12 12 8 6
24 23 21 20 19 18 15 11 9 12 19 23 23 19 13 9 6 5 3 3 6 3 6 4 4 5 4 8 16 14 3 1 3 13 21 24 25 16 6 4 2 2 5 4 2 3 3 6 7 7 5 5 6 7 7 11 5 4 4 7 10 9 8 7 4 3 3 3 4 3 5 7 8 5 11 11 9 11 10 11 11 10 12 12 11 10 7 5
23 23 22 20 19 18 16 14 10 10 17 20 16 14 13 9 4 1 2 4 4 4 5 3 5 5 5 11 19 11 2 1 4 6 20 25 22 12 5 7 6 4 6 5 5 3 3 6 7 8 6 5 6 4 8 12 6 5 2 5 6 6 5 5 3 4 3 4 4 4 6 3 9 6 6 7 7 8 9 10 10 9 12 12 10 8 5 4
18 19 21 21 20 18 17 17 12 9 15 18 12 8 9 9 3 4 1 4 2 3 2 5 6 5 8 13 14 6 4 3 2 6 15 21 21 8 1 6 6 5 5 6 6 2 2 4 6 8 6 6 6 3 9 13 6 4 4 4 3 3 2 2 3 2 1 3 5 6 6 3 7 5 3 3 4 6 7 7 7 7 8 8 8 6 5 4
12 12 15 18 19 19 18 16 14 11 13 15 12 6 7 7 2 3 5 5 0 3 3 6 6 5 9 8 5 5 1 3 3 9 11 12 15 6 2 5 5 4 2 5 7 5 2 0 2 5 6 5 5 3 6 11 7 3 5 2 4 3 3 3 1 1 1 6 6 7 10 7 4 5 4 4 4 4 4 6 7 6 7 7 7 6 5 4
9 8 9 13 16 19 18 14 12 12 12 13 13 9 8 4 0 4 8 2 2 1 4 3 1 5 8 4 2 3 2 1 3 9 6 4 8 4 2 4 3 3 1 5 6 6 7 5 2 4 7 5 4 2 1 3 4 4 4 2 2 2 3 4 3 2 1 6 4 3 8 8 7 7 4 5 7 5 4 5 6 5 7 10 9 7 5 4
9 8 7 9 14 17 17 14 10 10 11 13 14 12 8 1 3 8 5 3 2 2 3 2 1 3 2 2 0 3 2 1 3 5 4 4 6 6 5 5 4 2 2 5 4 3 5 10 8 4 6 9 6 2 1 1 2 3 3 3 2 2 3 4 2 0 3 7 2 1 2 4 9 8 9 15 16 12 8 8 9 8 8 12 12 10 7 5
10 9 8 8 12 15 17 15 10 9 11 14 17 13 6 3 7 9 5 2 3 1 3 2 3 3 2 2 1 1 1 1 4 3 2 4 5 7 7 6 5 3 2 4 1 2 3 5 6 5 4 10 11 5 3 2 4 6 5 4 4 1 1 2 3 1 3 6 3 1 0 3 6 6 10 17 17 14 11 12 14 14 15 17 15 12 10 8
10 11 10 9 10 14 17 16 11 11 15 18 17 10 4 8 11 9 7 7 4 2 4 2 4 3 2 1 3 3 1 2 5 4 2 4 4 5 7 9 7 2 2 3 1 3 2 5 5 8 3 10 15 11 6 5 6 7 4 4 4 4 4 4 3 3 4 4 3 1 2 3 3 3 6 10 10 12 13 16 16 16 19 19 17 15 15 13
10 11 12 10 9 11 15 18 13 13 20 21 12 5 6 9 10 9 7 6 3 2 3 2 4 3 2 3 3 4 3 2 4 4 3 5 5 5 6 8 10 6 3 3 2 3 4 7 6 5 2 10 14 8 7 8 3 4 3 3 3 4 5 2 3 5 2 3 4 2 4 4 4 7 11 9 11 12 12 14 13 16 20 20 20 22 21 17
11 12 13 11 8 8 11 18 15 15 24 19 5 5 9 10 9 6 3 3 3 3 2 2 2 3 4 3 2 4 2 1 4 3 3 5 5 5 5 5 9 11 9 6 2 3 3 5 4 3 1 7 9 6 9 7 4 3 3 4 3 4 5 2 3 1 3 2 4 2 4 6 4 9 10 6 7 8 9 10 11 15 18 18 21 25 24 21
13 14 14 12 10 8 10 18 18 17 21 13 5 8 9 10 10 5 1 1 2 4 6 4 4 5 5 3 2 4 2 1 4 4 2 4 4 7 8 5 7 14 16 10 2 2 4 3 4 5 2 4 3 4 4 3 5 6 4 5 2 2 2 2 1 3 2 4 4 1 4 5 5 6 5 5 8 8 9 8 6 8 9 11 18 23 25 24
13 14 15 13 12 12 11 17 20 19 15 7 8 12 9 10 11 6 3 1 2 2 3 5 6 5 5 4 3 4 5 3 5 5 2 2 4 6 8 5 7 16 21 14 3 2 2 2 4 3 2 1 2 4 1 1 3 5 3 3 3 2 2 2 2 2 2 4 4 3 4 4 6 7 5 5 7 9 10 6 3 6 6 8 16 22 26 27
12 10 11 10 10 9 10 17 21 18 10 5 8 11 8 12 15 12 9 5 1 1 2 4 5 2 3 5 2 2 5 6 6 5 3 3 4 6 10 7 7 12 17 14 6 4 1 1 4 0 1 0 2 2 4 3 2 0 0 1 1 2 3 3 3 2 3 4 4 5 6 6 8 6 5 7 8 9 10 7 5 7 8 12 17 22 28 32
11 6 5 8 8 6 8 17 19 14 7 6 9 9 7 9 11 12 14 11 5 5 5 4 4 3 2 4 3 2 5 5 5 5 4 4 5 4 7 8 3 3 9 10 7 4 1 3 5 1 2 1 2 5 8 10 7 4 3 3 3 2 1 1 2 2 4 4 3 5 8 9 7 5 7 9 8 8 8 7 7 7 9 15 19 22 28 33
11 4 4 10 9 6 10 15 11 7 5 5 9 11 9 6 6 8 12 12 8 8 9 6 6 5 4 5 3 3 3 4 5 6 4 4 6 4 5 9 6 5 5 4 5 6 2 4 5 2 1 4 6 7 8 12 12 9 8 9 9 7 3 3 5 3 4 4 5 5 8 13 8 4 6 8 7 7 7 6 7 8 12 17 17 19 24 30
11 5 5 9 9 8 12 10 5 6 5 7 10 10 8 6 6 8 8 6 6 6 6 6 7 8 6 7 7 3 3 3 4 5 4 6 9 6 5 10 11 10 8 4 5 7 5 1 4 6 6 7 8 5 3 6 7 5 5 6 7 8 8 8 9 5 2 2 3 3 6 14 9 5 6 6 6 6 7 7 6 10 16 18 15 16 19 23
13 10 8 9 9 12 11 3 5 6 4 10 13 13 12 7 3 5 6 5 5 3 3 4 6 9 8 7 9 6 4 5 6 7 6 7 9 10 8 11 13 8 4 2 3 3 4 1 4 8 6 4 4 3 2 2 2 4 4 4 6 9 12 10 6 3 2 4 5 4 7 13 11 4 6 6 7 6 7 9 8 10 17 18 12 11 13 18
15 16 16 14 12 14 11 3 4 6 6 10 12 14 17 12 7 7 5 4 4 2 2 3 2 3 3 3 4 4 5 7 8 10 9 6 5 10 12 15 16 9 6 7 5 5 6 3 5 7 6 4 4 3 3 2 3 4 5 7 9 11 12 5 1 0 4 7 10 9 8 10 12 6 3 4 7 7 8 10 10 10 15 16 11 8 9 13
11 11 16 20 18 17 13 8 5 4 6 9 10 12 14 13 12 14 11 8 7 4 3 4 2 3 4 4 5 4 6 8 7 6 5 3 3 6 6 8 10 7 7 6 4 1 5 5 7 9 8 8 9 8 7 4 4 3 3 8 11 12 12 7 3 5 8 9 12 11 9 9 13 13 8 5 6 7 8 8 9 11 12 14 14 13 11 10
7 5 9 14 17 18 17 16 11 4 4 7 7 8 11 11 13 18 15 10 11 10 8 7 6 6 5 6 7 7 7 7 7 5 3 3 3 2 5 8 6 7 15 18 13 5 2 4 8 13 14 13 13 13 6 5 5 6 8 13 15 14 15 11 7 9 10 11 13 12 11 14 17 19 19 13 8 8 9 8 7 9 13 15 15 15 14 12
7 3 6 7 8 11 11 13 12 5 4 6 3 4 11 11 8 12 14 10 11 11 8 6 6 6 6 7 8 8 6 6 7 7 7 6 4 4 10 14 9 10 16 14 6 2 2 5 9 15 18 16 14 15 10 2 6 11 13 16 18 16 17 15 13 16 14 12 13 13 16 20 17 17 22 21 16 15 12 8 7 13 20 21 18 16 15 14
12 6 12 14 9 6 6 10 12 9 8 8 4 4 11 11 6 6 8 6 6 6 3 3 6 7 6 6 6 7 7 9 9 8 7 7 5 6 9 9 8 8 9 5 2 1 3 6 8 12 17 17 14 15 16 13 11 11 12 15 17 17 19 19 20 22 19 16 15 14 19 21 16 16 21 23 24 20 12 11 15 20 24 23 19 19 19 18
15 8 12 15 10 6 12 19 18 13 12 11 6 6 10 12 10 8 4 2 4 4 3 4 5 3 4 4 3 4 5 7 7 5 5 7 7 5 5 6 6 6 7 5 4 3 3 4 7 13 16 17 16 15 17 18 17 17 16 15 14 16 20 21 22 24 24 24 21 17 21 21 17 17 20 25 28 20 8 11 18 19 21 22 22 24 24 24
19 12 10 9 7 4 10 16 14 10 11 12 9 9 11 12 13 11 6 5 5 3 4 7 4 2 3 4 3 3 5 6 7 6 8 9 7 5 4 5 5 6 7 5 4 4 4 4 6 11 13 14 15 16 17 18 18 20 21 18 16 17 19 21 22 21 21 23 22 21 22 19 15 17 21 24 25 16 5 8 13 17 22 23 23 26 28 27
30 26 20 11 5 6 8 7 8 7 7 8 9 10 12 13 14 11 8 10 10 5 5 7 3 2 1 3 4 5 5 5 7 8 9 9 8 7 6 5 7 9 8 6 5 5 5 4 6 9 10 10 12 13 14 15 17 19 20 20 21 21 19 18 18 17 18 20 20 21 20 15 14 18 19 18 19 17 14 12 11 16 23 24 24 27 29 28
34 30 25 14 5 7 8 4 6 8 7 8 11 11 11 12 12 10 8 9 11 10 8 5 2 2 3 5 9 9 6 6 10 13 13 13 15 14 14 13 12 8 5 6 6 5 5 6 6 7 9 10 13 16 15 14 13 13 11 16 24 26 24 22 20 20 20 19 17 17 16 14 14 15 16 18 18 18 20 19 15 16 21 25 27 29 31 31
Wind_Direction
263 267 271 278 286 293 297 299 295 268 254 269 277 280 278 275 277 278 281 285 287 287 288 290 291 292 294 297 297 295 296 292 285 272 268 283 293 268 253 248 249 239 238 248 253 265 266 259 259 247 243 261 269 265 254 229 193 166 123 168 235 204 206 199 192 214 210 271 273 276 303 310 296 302 303 304 291 281 285 281 277 275 273 272 276 283 284 284
260 259 263 270 274 282 287 291 298 281 256 259 269 276 284 284 280 279 283 287 290 291 289 290 292 294 300 302 300 302 303 298 292 281 275 276 265 256 248 241 240 239 241 248 256 262 255 253 249 237 244 255 256 247 234 221 189 180 137 179 237 208 214 205 203 239 249 280 289 292 297 293 282 293 303 302 294 295 292 287 287 281 278 282 285 289 290 288
261 256 257 260 265 273 279 285 294 288 263 253 261 271 280 285 284 283 287 291 293 294 292 292 295 301 307 304 304 307 307 305 299 293 286 271 256 248 244 240 236 236 240 246 250 241 236 235 232 236 254 259 250 239 217 200 195 204 184 223 247 224 251 245 240 253 260 281 294 294 296 288 281 286 291 288 291 295 284 282 288 283 286 294 299 298 296 294
263 259 261 257 256 261 271 279 285 288 279 260 260 265 273 281 283 285 292 300 301 299 296 297 299 302 309 306 306 308 315 317 304 298 338 271 248 243 238 238 235 237 240 241 232 216 218 219 223 238 256 266 255 250 231 208 203 199 186 223 246 224 272 259 256 265 272 282 281 287 298 290 288 286 274 273 293 291 276 277 273 273 286 297 302 302 298 295
264 266 271 258 248 255 267 273 277 284 287 274 266 264 269 276 280 286 296 303 304 303 302 302 300 299 304 303 303 308 323 336 295 147 108 112 109 130 160 204 218 227 230 221 210 201 206 215 222 235 241 261 238 239 251 214 206 211 219 239 256 257 271 273 277 280 281 284 280 285 292 289 294 287 266 262 260 266 273 280 279 276 283 290 295 299 297 293
278 280 278 256 245 254 263 270 279 286 286 278 273 267 264 270 279 286 293 302 307 311 310 305 301 298 300 299 296 303 305 297 209 144 138 136 127 127 120 108 166 206 208 195 196 195 201 214 218 216 199 254 208 205 252 222 206 238 248 247 261 261 264 278 284 284 285 284 277 277 280 289 294 287 278 264 251 263 274 281 282 282 284 286 289 290 291 291
284 291 284 254 244 254 262 273 282 286 284 276 274 270 264 269 277 284 293 304 314 321 315 307 306 298 298 299 288 291 269 255 254 237 237 213 215 235 250 297 234 205 196 190 197 193 199 211 212 211 178 274 231 211 251 253 216 236 263 261 268 269 269 279 285 284 284 278 274 278 281 282 279 282 291 274 266 270 277 281 281 284 289 289 288 288 289 290
280 289 289 264 249 255 265 276 280 282 286 282 278 272 264 265 273 286 298 310 319 322 316 313 314 302 302 305 294 291 273 267 266 251 253 253 251 255 262 272 233 208 201 200 203 196 204 213 217 218 193 231 224 217 260 278 241 227 253 268 274 279 279 286 290 288 284 278 278 279 269 264 266 276 287 274 277 281 280 283 285 288 293 292 290 291 292 291
275 283 289 277 263 264 267 274 278 280 289 300 296 280 267 269 280 294 306 317 319 318 317 317 316 309 308 307 306 299 276 274 281 256 247 249 249 252 257 248 216 213 212 206 202 204 215 224 233 229 225 231 222 240 251 258 248 228 267 284 283 284 285 291 290 286 284 281 280 274 261 266 269 277 278 268 274 287 288 286 289 291 291 290 290 290 291 291
276 277 280 280 276 275 273 275 283 287 295 309 308 295 281 285 296 301 308 317 315 315 317 316 317 314 310 305 309 278 271 268 273 255 233 239 242 244 247 232 213 216 217 213 210 216 227 248 264 243 238 243 219 240 201 182 257 289 303 296 286 284 285 285 281 281 285 286 280 265 262 268 265 267 270 270 274 284 288 289 289 287 284 285 288 290 292 290
299 284 278 279 278 276 272 273 286 296 300 307 310 304 298 301 307 304 306 310 306 310 310 312 317 313 311 305 245 230 265 261 251 250 237 240 237 234 235 220 214 216 218 221 221 226 238 258 267 233 226 236 219 250 231 236 274 302 315 305 288 286 285 275 269 277 283 287 281 262 265 263 241 200 240 265 277 278 283 290 287 285 284 288 293 295 295 292
326 310 294 287 280 270 265 266 276 285 292 299 303 300 299 303 308 303 299 293 296 304 305 311 314 310 315 290 251 253 267 260 253 247 238 240 233 224 222 214 214 217 221 226 227 233 242 258 251 223 229 239 261 310 258 273 301 302 316 308 294 296 285 275 265 271 252 251 286 293 286 266 165 213 245 261 278 280 282 284 285 290 292 296 298 298 298 298
310 315 311 303 288 273 267 264 266 268 272 279 288 290 291 293 294 292 287 284 292 299 302 307 307 312 313 275 266 278 271 257 249 242 235 234 228 225 225 218 218 219 223 226 230 237 241 254 243 228 245 252 246 289 290 307 312 297 293 277 302 319 293 286 261 256 170 254 286 339 307 283 181 219 245 263 281 281 284 284 292 299 299 299 299 299 300 301
284 292 301 308 301 284 276 270 266 262 264 270 278 282 281 279 274 274 277 282 289 291 294 300 306 318 300 270 283 294 277 266 253 248 241 234 227 226 227 224 224 224 226 229 233 238 239 242 226 226 248 249 260 283 303 321 320 301 294 199 310 317 282 300 329 317 328 295 308 63 292 283 266 229 244 262 264 275 293 295 299 300 298 299 299 298 299 303
268 272 279 289 295 296 291 284 275 266 264 268 271 274 273 274 272 270 272 277 282 285 290 297 306 318 296 281 291 288 276 276 268 257 239 232 227 225 227 226 227 225 225 229 231 232 226 212 204 217 241 243 269 315 325 330 344 332 296 283 313 241 269 302 297 251 257 294 27 78 248 282 287 261 221 240 257 290 299 296 295 295 295 297 298 297 299 305
259 260 264 270 276 285 289 290 290 281 272 267 267 268 269 273 274 274 277 280 283 285 291 296 303 313 299 290 300 294 280 281 280 262 232 229 224 224 228 227 227 222 220 222 219 212 200 188 201 224 241 233 136 68 13 332 322 344 199 271 283 249 294 319 308 230 158 311 5 302 238 286 292 283 253 261 283 295 294 289 289 290 292 294 295 296 299 306
258 257 257 259 263 270 275 280 285 287 284 274 269 268 269 272 274 276 278 277 278 282 286 287 298 305 279 274 287 287 283 282 279 248 223 226 220 221 223 216 211 206 201 197 190 184 183 183 190 234 263 307 121 100 30 302 274 303 154 251 264 254 284 302 295 331 60 32 330 287 266 267 277 283 285 287 290 287 279 278 284 287 289 291 293 295 299 303
255 256 257 257 257 259 264 272 276 278 281 277 272 270 269 271 273 275 274 274 276 279 281 272 271 305 278 270 286 291 292 281 262 237 228 230 213 210 212 207 194 182 173 165 176 177 176 174 136 318 337 122 148 131 182 237 226 232 209 226 277 267 244 262 271 299 7 333 292 285 279 270 274 281 288 292 295 285 275 277 281 284 287 290 291 293 298 299
250 251 254 257 259 257 257 263 267 271 273 272 268 264 268 275 278 272 264 262 261 264 277 254 220 233 275 286 300 303 309 297 272 249 242 228 200 191 197 201 187 175 160 145 187 181 166 126 88 187 252 205 191 183 204 223 169 172 211 211 268 277 261 264 266 272 334 303 278 271 273 274 280 284 287 294 298 288 279 280 281 282 285 286 288 291 295 296
251 250 249 252 255 257 256 256 262 265 262 260 258 259 269 278 280 272 255 250 256 265 270 260 245 250 265 277 284 285 277 276 276 257 239 211 188 177 179 180 171 173 164 147 188 176 163 179 179 216 232 202 194 207 219 245 353 336 264 260 260 271 276 273 277 286 358 287 266 259 272 275 278 283 285 292 296 287 278 281 278 277 279 281 285 289 292 294
256 255 253 253 254 255 255 254 260 262 252 245 249 251 255 260 265 290 284 270 275 277 270 268 263 258 264 267 266 268 268 270 261 240 223 194 180 172 176 169 154 180 184 140 132 116 164 203 219 226 228 174 186 210 224 253 280 272 264 275 274 261 268 273 288 306 67 246 256 260 280 283 282 284 285 287 288 281 280 279 269 270 275 278 280 285 291 293
264 260 258 258 257 258 257 253 257 258 245 236 244 244 249 264 276 291 301 289 286 282 272 272 264 256 263 261 252 252 255 267 252 227 206 186 181 180 176 169 172 184 154 128 118 125 217 229 232 231 216 120 172 197 206 229 244 250 249 272 274 261 278 279 283 316 47 256 278 289 289 288 285 283 283 282 273 275 282 275 266 268 269 274 278 284 291 292
269 267 263 261 259 262 260 257 255 249 237 235 247 250 258 276 285 296 304 286 285 285 271 265 256 250 259 259 250 244 239 245 246 228 211 190 183 190 181 166 183 157 144 180 188 188 215 237 237 230 196 158 208 176 181 224 240 235 228 249 262 256 285 279 273 336 333 279 285 298 294 284 279 280 285 282 256 262 281 279 273 269 263 269 277 283 287 290
266 267 267 265 263 264 264 265 255 243 238 240 251 257 266 284 291 303 309 282 274 279 268 262 255 248 252 256 250 232 225 231 234 227 215 194 178 186 191 168 162 161 188 201 202 215 223 238 234 207 188 189 215 200 174 215 243 226 212 222 251 254 242 249 284 337 318 292 304 315 305 284 269 279 287 293 273 270 289 296 287 276 268 268 272 274 277 283
260 262 266 268 268 267 269 271 257 245 242 240 249 258 268 288 296 307 313 292 267 268 268 259 244 244 245 245 239 217 216 229 232 225 209 195 183 174 172 168 170 194 204 197 212 239 243 246 134 140 180 190 205 223 193 199 241 257 210 216 236 249 247 256 291 343 334 305 345 4 333 287 272 281 278 296 303 292 302 307 291 283 278 268 261 264 265 274
254 255 258 263 266 268 269 270 265 253 242 238 248 258 269 285 294 307 323 304 270 238 224 221 211 224 222 212 198 180 184 240 238 226 208 199 195 184 150 163 179 203 183 173 221 252 240 224 196 171 172 165 198 242 209 186 230 302 220 207 224 240 247 263 283 326 301 257 297 48 17 280 285 269 274 286 288 283 293 295 285 282 281 269 254 256 255 264
254 252 251 252 257 263 261 256 258 248 233 235 248 254 260 272 282 311 357 303 271 175 139 167 172 166 188 193 168 150 155 284 210 213 201 195 196 192 185 173 152 194 160 133 246 249 183 200 213 198 167 155 207 243 195 164 179 271 237 190 204 223 230 241 250 235 243 286 289 166 151 276 286 250 264 280 284 282 283 284 283 280 281 272 251 248 250 262
258 254 251 247 246 251 250 246 247 240 231 236 248 250 246 245 236 82 46 292 273 117 124 154 157 171 165 169 169 156 337 359 87 194 191 188 193 191 205 198 169 184 171 156 225 256 148 185 207 190 177 201 215 201 159 158 184 246 203 146 174 192 203 201 191 226 271 344 290 202 137 270 281 265 264 273 280 285 281 282 286 283 282 267 241 239 244 255
265 258 253 244 240 241 241 242 243 235 236 238 243 245 224 209 175 93 97 267 253 96 122 151 149 165 134 148 186 218 352 20 72 168 174 183 193 186 204 198 162 168 197 207 231 273 84 188 193 172 180 215 206 167 157 166 197 229 146 109 93 100 106 136 157 174 348 309 257 203 158 216 275 278 265 258 266 270 276 285 283 283 284 258 231 237 236 238
274 267 255 243 235 233 233 238 240 233 233 235 234 219 185 190 147 114 222 247 50 81 113 147 159 159 137 135 216 248 275 4 80 139 153 178 188 174 95 159 139 131 226 272 259 257 273 237 141 178 203 202 170 159 171 177 182 127 115 85 28 38 47 57 91 81 3 274 255 204 187 190 273 282 224 220 234 231 260 292 295 306 305 273 242 232 223 224
282 276 262 245 230 227 228 231 237 231 220 220 219 190 166 190 188 199 224 256 28 75 104 126 156 134 144 150 195 192 161 7 115 142 148 159 173 167 109 142 121 84 319 282 266 263 260 248 241 212 199 165 121 125 171 191 171 99 92 92 38 333 9 26 355 46 200 254 271 215 185 177 228 262 261 273 275 246 230 259 278 298 302 286 262 234 217 212
293 283 273 248 229 225 224 222 226 221 209 207 200 176 154 191 245 223 237 19 1 240 119 117 14 111 142 350 42 160 128 143 161 156 157 150 175 195 192 185 150 98 262 240 243 283 254 233 227 225 196 170 140 112 35 2 134 127 129 115 84 321 5 6 309 132 231 256 278 102 135 188 234 262 280 278 277 264 240 237 252 257 267 276 264 239 225 209
298 288 277 255 237 226 219 218 213 200 198 192 179 161 145 234 236 222 223 260 258 273 89 105 69 98 124 7 310 174 96 193 176 166 167 159 190 210 216 219 177 136 211 197 215 300 290 264 208 190 221 181 165 175 203 198 169 167 168 153 148 158 101 273 268 281 263 271 284 154 92 280 270 274 254 254 264 270 265 258 258 255 252 260 258 243 235 222
299 294 282 267 250 234 223 214 200 188 189 181 167 152 178 233 241 233 216 228 249 39 62 86 73 76 144 227 253 186 136 234 173 157 155 160 193 217 218 225 205 151 90 148 189 183 216 297 194 170 200 178 181 200 183 131 156 178 162 144 156 161 171 206 218 227 251 282 303 240 190 219 224 266 243 236 258 272 270 267 270 270 261 257 254 243 236 228
296 295 289 282 266 248 230 215 199 185 183 176 162 166 207 226 243 246 229 231 247 57 26 19 83 73 282 263 261 211 197 228 163 151 183 188 205 210 202 215 200 176 145 178 231 171 200 271 221 174 145 167 181 195 140 107 141 193 130 127 206 184 169 203 201 184 186 307 297 232 224 225 216 269 275 265 267 268 268 268 268 268 260 252 246 238 232 226
289 290 290 291 277 261 235 218 206 186 183 179 176 207 214 229 230 226 219 210 201 154 117 332 109 140 252 258 268 239 213 145 155 159 219 214 228 227 212 217 195 189 191 187 200 177 196 278 233 149 98 181 183 176 160 159 170 155 143 179 210 160 150 202 262 77 73 265 265 200 240 282 302 284 283 293 294 282 272 262 248 248 248 243 239 233 229 227
283 287 287 290 280 266 235 217 209 195 190 192 219 214 217 238 229 218 222 146 156 149 154 221 216 185 219 249 236 215 187 125 172 172 204 209 234 226 211 220 196 196 208 210 241 213 193 275 241 169 188 226 190 139 163 189 141 130 186 205 131 93 122 120 255 346 25 250 271 239 232 275 297 281 295 347 339 310 282 270 262 265 260 247 244 235 229 229
276 287 288 285 274 262 236 216 207 201 200 211 242 233 229 241 237 230 241 230 57 102 169 223 221 184 200 229 231 193 177 184 177 172 192 208 240 211 188 208 204 202 214 216 259 297 167 267 267 179 160 257 102 114 111 311 145 136 194 212 122 156 220 119 159 236 237 240 276 274 245 250 242 244 264 287 297 289 284 296 292 273 265 249 248 237 227 227
266 285 288 273 263 262 232 212 204 200 206 215 228 233 230 240 249 247 248 268 28 100 241 239 229 220 205 205 196 154 182 194 176 174 198 210 236 197 171 193 215 210 211 201 211 280 95 233 275 251 162 337 61 177 179 187 238 38 333 262 103 159 186 166 168 178 200 237 276 277 274 260 235 216 196 217 231 243 263 286 271 250 241 239 245 240 228 224
246 256 273 242 248 269 213 197 194 196 215 224 224 238 237 246 263 253 240 244 235 228 246 237 222 248 240 216 211 174 203 212 182 184 215 218 242 239 181 187 190 194 196 188 213 273 10 252 254 17 354 266 188 206 185 175 187 186 192 212 198 181 155 219 235 155 162 199 237 253 264 263 242 183 175 203 221 228 237 257 263 258 254 251 253 250 237 226
225 216 243 226 238 250 187 175 184 206 232 238 234 242 249 274 302 271 245 241 239 246 256 256 245 249 264 264 248 175 195 227 191 194 230 225 229 247 198 182 158 116 128 159 226 229 198 247 238 197 239 225 221 222 196 189 189 182 190 200 197 188 167 235 243 203 163 196 204 207 255 269 256 171 186 206 213 225 217 221 254 271 271 269 269 265 252 234
212 212 233 220 230 218 176 163 209 231 221 235 242 255 276 297 290 276 278 271 247 243 255 262 256 252 252 257 257 217 184 216 201 199 223 223 222 227 199 178 168 151 140 158 227 214 186 226 247 239 237 230 236 241 211 213 215 211 211 196 190 187 184 214 229 210 161 210 201 179 248 268 260 163 178 205 206 230 224 208 243 272 273 278 285 280 264 243
208 213 206 201 212 197 174 168 249 228 234 258 265 280 287 292 293 291 304 292 260 243 247 254 255 257 253 252 257 240 205 214 205 204 229 235 228 235 221 179 165 156 150 210 254 196 167 181 244 251 266 287 288 285 350 341 222 239 248 181 180 203 206 217 222 189 166 192 203 216 236 259 267 198 174 208 215 235 247 233 238 264 274 280 286 277 264 246
217 219 208 202 199 186 178 189 230 221 246 264 269 273 273 276 282 280 279 281 295 333 288 255 244 276 288 309 288 248 236 243 221 218 237 236 231 250 238 198 184 183 189 194 192 179 183 193 215 240 266 288 297 282 281 281 189 211 239 208 208 219 221 238 342 205 231 206 207 229 235 252 270 263 161 193 225 243 255 244 234 246 272 289 299 294 278 253
218 221 212 209 207 202 207 217 218 223 235 249 261 262 267 273 266 262 268 276 276 280 287 279 311 342 320 321 317 283 262 262 248 241 245 239 271 279 263 221 208 212 229 254 325 305 211 211 204 222 239 232 235 239 233 221 194 196 235 220 220 218 216 225 234 231 239 224 218 233 245 255 268 272 265 237 237 255 258 249 237 239 264 291 305 306 301 270
207 213 210 206 206 209 219 225 225 231 225 238 258 255 253 261 266 270 275 274 267 266 273 282 301 315 292 276 282 276 268 263 258 263 258 252 264 278 335 331 308 285 286 299 337 14 232 249 229 230 237 231 235 245 229 126 148 199 212 214 217 213 210 214 226 232 234 236 235 235 243 252 258 267 270 263 248 247 246 246 246 253 270 286 297 304 307 292
207 199 196 192 202 207 214 221 220 216 215 221 229 242 245 248 258 269 265 260 268 271 265 265 272 271 263 269 275 269 270 269 263 271 275 273 274 289 314 319 306 290 289 290 321 35 232 264 257 253 256 253 254 263 263 198 185 208 208 212 218 213 206 207 220 230 230 239 243 231 235 248 252 259 270 273 263 250 240 240 253 264 272 279 287 293 293 286
220 220 207 200 198 194 197 208 208 207 214 219 215 237 252 254 243 246 255 267 292 291 285 263 255 260 278 297 293 281 283 284 278 279 284 291 314 320 316 312 296 308 320 299 290 302 235 240 253 262 268 268 270 275 275 270 257 242 224 219 219 215 212 212 220 226 226 233 241 231 234 245 248 251 261 266 265 261 247 236 243 252 259 263 266 267 267 264
225 234 224 214 212 202 196 199 199 199 211 217 221 232 245 255 253 251 267 326 315 286 270 269 268 302 354 360 341 295 294 300 295 298 317 320 325 330 320 302 299 346 12 349 314 295 251 256 262 262 267 270 267 266 268 269 270 268 258 242 228 222 222 221 224 227 229 235 242 241 241 244 242 245 250 254 263 272 258 229 236 240 243 245 244 245 248 249
230 232 226 225 244 229 188 189 186 186 207 215 219 229 234 241 248 254 261 265 274 274 263 276 293 47 32 2 2 301 289 306 306 306 319 321 322 324 304 284 302 343 353 335 319 293 279 298 302 286 278 273 269 265 261 259 260 262 262 260 256 247 238 232 231 231 234 241 245 245 247 248 244 246 251 254 265 282 281 223 229 233 235 235 234 238 241 242
241 239 228 218 227 206 183 175 172 174 198 208 210 220 229 235 238 244 253 247 243 244 261 276 315 48 339 310 313 283 277 293 287 286 299 302 302 308 305 300 317 327 321 302 289 292 294 309 325 312 291 282 287 286 280 279 274 265 260 257 256 253 247 241 237 233 236 244 246 244 246 246 243 248 255 260 267 274 270 253 234 232 237 236 233 238 242 243
245 243 233 224 217 203 197 183 185 189 192 200 202 205 217 228 223 219 241 243 227 227 224 195 142 333 295 291 291 283 276 275 274 278 286 286 281 279 274 276 282 283 285 293 289 281 279 285 297 294 282 286 294 292 296 301 289 272 261 253 251 252 251 246 243 239 236 238 242 244 245 246 247 251 257 262 263 263 263 262 251 238 239 242 242 244 248 250